Weather History for LICA - November, 2013

Change the Weather History Date:

Wednesday, November 20, 2013

  Actual Average Record
Temperature  
Mean Temperature 57 °F -  
Max Temperature 66 °F 59 °F 69 °F (2010)
Min Temperature 48 °F 46 °F 37 °F (2007)
Degree Days  
Heating Degree Days 8    
Growing Degree Days 7 (Base 50)    
Moisture  
Dew Point 53 °F    
Average Humidity 86    
Maximum Humidity 100    
Minimum Humidity 68    
Precipitation  
Precipitation 0.00 in - - ()
Sea Level Pressure  
Sea Level Pressure 29.78 in    
Wind  
Wind Speed 8 mph ()    
Max Wind Speed 29 mph    
Max Gust Speed -    
Visibility 5.6 miles    
Events Rain , Thunderstorm    
Averages and records for this station are not official NWS values.
T = Trace of Precipitation, MM = Missing Value Source: Averaged Metar Reports

Daily Weather History Graph

Daily Weather History Graph

Search for Another Location

Airport or City:

Trip Planner

Search our weather history database for the weather conditions in past years. The results will help you decide how hot, cold, wet, or windy it might be!

Date:

Astronomy

Nov. 20, 2013 Rise Set
Actual Time 6:43 AM CET 4:37 PM CET
Civil Twilight 6:14 AM CET 5:06 PM CET
Nautical Twilight 5:41 AM CET 5:39 PM CET
Astronomical Twilight 5:10 AM CET 6:10 PM CET
Moon 7:05 PM CET (11/20) 8:55 AM CET (11/20)
Length of Visible Light 10h 52m
Length of Day
9h 54m
Waning Gibbous, 93% of the Moon is Illuminated
Nov 20
Waning Gibbous
Nov 25
Last Quarter
Dec 3
New
Dec 9
First Quarter
Dec 17
Full

Hourly Weather History & Observations

Time (CET) Temp. Dew Point Humidity Pressure Visibility Wind Dir Wind Speed Gust Speed Precip Events Conditions
12:50 AM 51.8 °F 50.0 °F 94% 29.77 in 6.2 mi East 5.8 mph - N/A   Partly Cloudy
2:50 AM 50.0 °F 50.0 °F 100% 29.77 in 6.2 mi East 6.9 mph - N/A   Partly Cloudy
3:50 AM 48.2 °F 48.2 °F 100% 29.74 in 6.2 mi East 5.8 mph - N/A   Partly Cloudy
4:50 AM 48.2 °F 48.2 °F 100% 29.74 in 6.2 mi East 6.9 mph - N/A   Partly Cloudy
5:50 AM 48.2 °F 48.2 °F 100% 29.74 in 6.2 mi East 8.1 mph - N/A   Partly Cloudy
6:50 AM 50.0 °F 48.2 °F 94% 29.77 in 6.2 mi East 5.8 mph - N/A   Partly Cloudy
7:50 AM 55.4 °F 51.8 °F 88% 29.77 in 6.2 mi East 6.9 mph - N/A   Scattered Clouds
8:50 AM 59.0 °F 53.6 °F 82% 29.80 in 6.2 mi East 4.6 mph - N/A   Scattered Clouds
9:50 AM 64.4 °F 55.4 °F 73% 29.80 in 6.2 mi Variable 2.3 mph - N/A   Scattered Clouds
10:50 AM 66.2 °F 57.2 °F 73% 29.80 in 6.2 mi West 18.4 mph - N/A   Scattered Clouds
10:54 AM 64.4 °F 57.2 °F 77% 29.80 in 2.5 mi West 21.9 mph - N/A   Mostly Cloudy
11:15 AM 64.4 °F 57.2 °F 77% 29.80 in 5.6 mi West 21.9 mph - N/A   Mostly Cloudy
11:50 AM 66.2 °F 55.4 °F 68% 29.80 in 6.2 mi West 17.3 mph - N/A   Scattered Clouds
12:50 PM 62.6 °F 55.4 °F 77% 29.80 in 6.2 mi NW 13.8 mph - N/A   Scattered Clouds
1:50 PM 64.4 °F 53.6 °F 68% 29.80 in 6.2 mi WNW 15.0 mph - N/A   Scattered Clouds
2:50 PM 66.2 °F 55.4 °F 68% 29.77 in 6.2 mi West 12.7 mph - N/A   Scattered Clouds
3:50 PM 64.4 °F 55.4 °F 73% 29.77 in 6.2 mi West 8.1 mph - N/A   Scattered Clouds
4:39 PM 62.6 °F 55.4 °F 77% 29.77 in 5.0 mi Variable 2.3 mph - N/A Rain , Thunderstorm Light Thunderstorms and Rain
4:50 PM 62.6 °F 55.4 °F 77% 29.77 in 3.7 mi Variable 2.3 mph - N/A Rain , Thunderstorm Light Thunderstorms and Rain
4:55 PM 57.2 °F 55.4 °F 94% 29.80 in 0.6 mi WNW 28.8 mph - N/A Rain , Thunderstorm Heavy Thunderstorms with Small Hail
5:16 PM 53.6 °F 51.8 °F 94% 29.80 in 6.2 mi North 10.4 mph - N/A Rain , Thunderstorm Light Thunderstorms and Rain
5:50 PM 53.6 °F 51.8 °F 94% 29.80 in 6.2 mi Variable 2.3 mph - N/A   Scattered Clouds
6:50 PM 55.4 °F 53.6 °F 94% 29.80 in 6.2 mi SSE 4.6 mph - N/A   Mostly Cloudy
7:50 PM 55.4 °F 55.4 °F 100% 29.80 in 6.2 mi East 5.8 mph - N/A   Mostly Cloudy
10:50 PM 55.4 °F 55.4 °F 100% 29.80 in 5.0 mi ENE 2.3 mph - N/A Rain Light Rain
11:50 PM 55.4 °F 55.4 °F 100% 29.80 in 4.3 mi Variable 1.2 mph - N/A Rain , Thunderstorm Light Thunderstorms and Rain